1529614800.86,16394,23.13,73988.0,7.21,-8.45,-2.99,0,*7B
1529614802.05,16395,23.13,73986.8,7.25,-8.55,-3.19,0,*76
1529614803.24,16396,23.13,73988.3,7.25,-8.41,-3.31,0,*7A
1529614804.42,16397,23.13,73988.0,7.25,-8.37,-3.31,0,*7A
1529614805.64,16398,23.13,73990.8,7.25,-8.03,-3.27,0,*75
1529614806.82,16399,23.13,73990.3,7.25,-7.49,-3.07,0,*77
1529614808.02,16400,23.13,73990.8,7.21,-7.11,-2.83,0,*74
1529614809.23,16401,23.13,73990.5,7.25,-6.93,-2.83,0,*7A
1529614810.45,16402,23.13,73990.0,7.21,-6.73,-2.75,0,*7A
1529614811.67,16403,23.13,73988.5,7.21,-6.55,-2.75,0,*7F
1529614812.92,16404,23.13,73988.3,7.25,-6.19,-2.67,0,*77
1529614814.13,16405,23.13,73986.8,7.25,-6.01,-2.71,0,*78
1529614815.38,16406,23.13,73986.5,7.25,-5.65,-2.63,0,*79
1529614816.56,16407,23.13,73988.3,7.25,-4.99,-2.31,0,*7D
1529614817.77,16408,23.13,73988.3,7.25,-4.49,-1.95,0,*72
1529614818.98,16409,23.13,73990.0,7.25,-4.17,-1.43,0,*73
1529614820.2,16410,23.13,73988.5,7.25,-3.83,-1.05,0,*73
1529614821.42,16411,23.13,73986.8,7.25,-3.67,-0.77,0,*4C
1529614822.63,16412,23.13,73988.8,7.25,-3.59,-0.53,0,*44
1529614823.82,16413,23.13,73988.3,7.25,-3.79,-0.45,0,*40
1529614825.03,16414,23.13,73988.0,7.27,-4.09,-0.45,0,*45
1529614826.22,16415,23.13,73990.3,7.25,-4.09,-0.45,0,*46
1529614827.41,16416,23.13,73990.5,7.25,-3.83,-0.33,0,*41
1529614828.65,16417,23.13,73986.5,7.27,-3.71,-0.19,0,*47
1529614829.84,16418,23.13,73986.0,7.25,-4.09,-0.33,0,*4A
1529614831.02,16419,23.13,73986.8,7.25,-4.37,-0.45,0,*47
1529614832.24,16420,23.13,73986.0,7.27,-4.33,-0.41,0,*4F
1529614833.47,16421,23.13,73990.0,7.27,-4.81,-0.45,0,*43
1529614834.64,16422,23.13,73986.8,7.25,-4.99,-0.57,0,*48
1529614835.83,16423,23.13,73984.8,7.25,-6.05,-0.81,0,*45
1529614837.07,16424,23.13,73990.0,7.27,-6.97,-1.17,0,*75
1529614838.31,16425,23.13,73988.0,7.27,-7.43,-1.55,0,*7A
1529614839.55,16426,23.13,73988.5,7.27,-7.61,-1.79,0,*77
1529614840.79,16427,23.13,73988.3,7.27,-7.19,-1.87,0,*78
1529614841.98,16428,23.13,73988.3,7.25,-6.85,-1.79,0,*70
1529614843.23,16429,23.13,73984.3,7.27,-7.19,-1.87,0,*76
1529614844.46,16430,23.13,73988.8,7.27,-7.49,-1.95,0,*78
1529614845.67,16431,23.13,73984.3,7.25,-7.49,-2.03,0,*77
1529614846.92,16432,23.13,73990.3,7.29,-7.57,-1.99,0,*77
1529614848.13,16433,23.13,73990.0,7.27,-7.87,-2.27,0,*73
1529614849.38,16434,23.13,73988.8,7.27,-7.73,-2.31,0,*78
1529614850.62,16435,23.13,73990.3,7.27,-7.73,-2.19,0,*73
1529614851.87,16436,23.13,73984.3,7.27,-7.73,-2.19,0,*70
1529614853.11,16437,23.13,73984.8,7.27,-8.03,-2.31,0,*73
1529614854.36,16438,23.13,73988.3,7.27,-8.55,-2.51,0,*79
1529614855.6,16439,23.13,73988.0,7.27,-8.59,-2.55,0,*70
1529614856.81,16440,23.13,73988.3,7.29,-8.11,-2.27,0,*79
1529614858.08,16441,23.13,73990.8,7.27,-7.77,-2.07,0,*7B
1529614859.33,16442,23.06,73984.5,7.27,-7.57,-1.79,0,*70
1529614860.54,16443,23.13,73988.8,7.29,-7.27,-1.63,0,*73
1529614861.76,16444,23.13,73988.8,7.29,-6.77,-1.39,0,*7F
1529614862.98,16445,23.13,73986.5,7.29,-6.77,-1.35,0,*72
1529614864.23,16446,23.13,73990.0,7.29,-6.93,-1.47,0,*7E
1529614865.47,16447,23.13,73990.5,7.29,-7.05,-1.47,0,*71
1529614866.68,16448,23.13,73990.5,7.29,-7.39,-1.59,0,*7E
1529614867.9,16449,23.13,73984.8,7.29,-7.65,-1.75,0,*78
1529614869.12,16450,23.13,73988.5,7.29,-7.83,-1.83,0,*71
1529614870.34,16451,23.13,73990.8,7.29,-7.87,-1.83,0,*74
1529614871.56,16452,23.13,73988.3,7.29,-7.65,-1.75,0,*72
1529614872.75,16453,23.06,73986.0,7.29,-7.15,-1.59,0,*7A
1529614873.97,16454,23.13,73990.3,7.29,-7.19,-1.47,0,*7E
1529614875.19,16455,23.13,73990.8,7.29,-7.01,-1.51,0,*71
1529614876.4,16456,23.13,73988.5,7.29,-6.89,-1.39,0,*7D
1529614877.65,16457,23.13,73990.0,7.29,-7.05,-1.35,0,*75
1529614878.84,16458,23.06,73984.3,7.29,-7.15,-1.29,0,*76
1529614880.06,16459,23.13,73990.0,7.31,-7.19,-1.17,0,*7F
1529614881.27,16460,23.13,73988.0,7.29,-7.19,-1.13,0,*78
1529614882.5,16461,23.06,73984.3,7.29,-7.39,-1.13,0,*7B
1529614883.72,16462,23.06,73984.0,7.29,-7.27,-1.17,0,*73
1529614884.93,16463,23.13,73988.3,7.29,-7.01,-1.17,0,*76
1529614886.14,16464,23.13,73986.8,7.29,-6.77,-1.13,0,*75
1529614887.38,16465,23.13,73990.3,7.29,-7.05,-1.13,0,*70
1529614888.6,16466,23.13,73986.8,7.29,-6.81,-1.05,0,*79
1529614889.84,16467,23.13,73990.0,7.29,-6.93,-1.01,0,*7F
1529614891.05,16468,23.13,73988.8,7.29,-6.89,-1.13,0,*78
1529614892.27,16469,23.13,73990.3,7.29,-6.47,-1.01,0,*78
1529614893.48,16470,23.06,73986.5,7.29,-6.35,-0.89,0,*44
1529614894.67,16471,23.06,73986.8,7.29,-6.39,-0.77,0,*48
1529614895.86,16472,23.13,73990.3,7.29,-6.51,-0.73,0,*41
1529614897.05,16473,23.13,73990.3,7.29,-6.59,-0.77,0,*4C
1529614898.27,16474,23.06,73984.3,7.29,-6.93,-0.77,0,*4D
1529614899.51,16475,23.13,73990.8,7.29,-7.39,-1.05,0,*79
1529614900.73,16476,23.13,73988.3,7.29,-7.15,-1.01,0,*70
1529614901.99,16477,23.06,73984.8,7.31,-7.01,-1.05,0,*79
1529614903.23,16478,23.13,73990.5,7.29,-7.05,-1.01,0,*7F
1529614904.46,16479,23.06,73984.3,7.29,-7.27,-1.01,0,*7E
1529614905.7,16480,23.06,73988.3,7.29,-7.65,-1.13,0,*7D
1529614906.94,16481,23.06,73986.3,7.29,-7.69,-1.05,0,*77
1529614908.18,16482,23.06,73986.5,7.29,-7.69,-1.01,0,*70
1529614909.41,16483,23.13,73988.0,7.29,-7.69,-1.01,0,*71
1529614910.66,16484,23.06,73984.8,7.29,-7.65,-1.01,0,*7A
1529614911.89,16485,23.13,73990.5,7.29,-7.57,-0.89,0,*4B
1529614913.14,16486,23.06,73984.3,7.29,-7.57,-1.01,0,*79
1529614914.35,16487,23.06,73986.5,7.29,-7.53,-1.01,0,*7C
1529614915.56,16488,23.06,73984.0,7.29,-7.53,-1.01,0,*73
1529614916.8,16489,23.13,73988.0,7.29,-7.57,-0.97,0,*48
1529614918.06,16490,23.13,73990.0,7.31,-7.73,-1.13,0,*72
1529614919.27,16491,23.06,73984.5,7.29,-7.83,-1.13,0,*75
1529614920.5,16492,23.06,73986.5,7.29,-7.73,-1.17,0,*7D
1529614921.71,16493,23.13,73988.3,7.27,-7.87,-1.29,0,*74
1529614922.9,16494,23.06,73986.8,7.25,-7.87,-1.21,0,*79
1529614924.09,16495,23.06,73986.5,7.25,-7.87,-1.29,0,*70
1529614925.3,16496,23.06,73986.3,7.25,-7.91,-1.21,0,*7C
1529614926.52,16497,23.06,73986.3,7.27,-7.87,-1.21,0,*78
1529614927.71,16498,23.06,73986.3,7.25,-7.87,-1.21,0,*75
1529614928.92,16499,23.06,73984.8,7.25,-7.77,-1.17,0,*7E
1529614930.13,16500,23.06,73984.0,7.25,-7.77,-1.17,0,*7F
1529614931.37,16501,23.06,73988.5,7.25,-7.73,-1.01,0,*7D
1529614932.61,16502,23.06,73986.5,7.25,-7.57,-1.01,0,*78
1529614933.85,16503,23.06,73984.0,7.25,-7.57,-0.89,0,*48
1529614935.03,16504,23.06,73986.8,7.25,-7.49,-0.81,0,*48
1529614936.24,16505,23.06,73984.3,7.25,-7.43,-0.69,0,*45
1529614937.44,16506,23.06,73984.8,7.25,-7.31,-0.65,0,*4F
1529614938.62,16507,23.06,73988.0,7.25,-7.23,-0.65,0,*4D
1529614939.81,16508,23.06,73986.0,7.25,-7.23,-0.57,0,*43
1529614941.0,16509,23.06,73984.5,7.25,-7.19,-0.53,0,*4F
1529614942.18,16510,23.06,73986.5,7.25,-7.19,-0.53,0,*47
1529614943.42,16511,23.06,73988.5,7.27,-7.05,-0.53,0,*49
1529614944.63,16512,23.06,73984.5,7.25,-6.93,-0.45,0,*41
1529614945.82,16513,23.06,73984.8,7.25,-6.77,-0.33,0,*4B
1529614947.0,16514,23.06,73986.5,7.25,-6.85,-0.45,0,*40
1529614948.2,16515,23.06,73984.5,7.25,-6.77,-0.33,0,*4D
1529614949.38,16516,23.06,73984.0,7.25,-6.55,-0.29,0,*45
1529614950.61,16517,23.06,73984.5,7.27,-6.43,-0.27,0,*4F
1529614951.82,16518,23.06,73986.3,7.25,-6.19,-0.07,0,*7F
1529614953.05,16519,23.06,73984.8,7.27,-6.27,0.05,0,*5E
1529614954.3,16520,23.06,73986.8,7.27,-6.19,0.17,0,*6A
1529614955.48,16521,23.06,73984.0,7.25,-6.51,0.09,0,*5A
1529614956.66,16522,23.06,73986.8,7.25,-6.39,0.05,0,*5B
1529614957.86,16523,23.06,73986.8,7.27,-6.39,-0.03,0,*73
1529614959.07,16524,23.06,73990.0,7.27,-6.39,-0.03,0,*74
1529614960.25,16525,23.06,73988.5,7.25,-6.31,0.05,0,*54
1529614961.45,16526,23.06,73984.8,7.27,-6.13,0.05,0,*55
1529614962.7,16527,23.06,73986.8,7.27,-5.73,0.17,0,*62
1529614963.93,16528,23.06,73988.5,7.27,-5.39,0.29,0,*6E
1529614965.16,16529,23.06,73986.8,7.27,-5.51,0.29,0,*61
1529614966.41,16530,23.06,73986.3,7.27,-5.65,0.33,0,*65
1529614967.66,16531,23.06,73986.3,7.27,-5.77,0.33,0,*67
1529614968.92,16532,23.06,73986.5,7.27,-5.85,0.33,0,*69
1529614970.17,16533,23.06,73984.5,7.27,-5.61,0.47,0,*61
1529614971.38,16534,23.06,73986.3,7.25,-5.35,0.47,0,*65
1529614972.61,16535,23.06,73986.8,7.29,-5.03,0.59,0,*62
1529614973.86,16536,23.06,73984.8,7.27,-5.23,0.67,0,*60
1529614975.1,16537,23.06,73984.8,7.27,-5.51,0.59,0,*69
1529614976.33,16538,23.06,73984.0,7.27,-5.97,0.47,0,*63
1529614977.53,16539,23.06,73986.0,7.25,-6.39,0.33,0,*64
1529614978.76,16540,23.06,73982.5,7.27,-6.51,0.21,0,*65
1529614980.01,16541,23.06,73984.5,7.27,-6.63,0.17,0,*60
1529614981.21,16542,23.06,73986.8,7.29,-6.59,0.13,0,*60
1529614982.42,16543,23.06,73984.8,7.27,-6.55,0.09,0,*58
1529614983.65,16544,23.06,73986.8,7.27,-6.55,0.17,0,*60
1529614984.87,16545,23.06,73986.8,7.27,-6.63,0.05,0,*57
1529614986.09,16546,23.06,73984.5,7.27,-6.63,0.05,0,*54
1529614987.28,16547,23.06,73982.3,7.29,-6.51,0.09,0,*56
1529614988.51,16548,23.06,73984.0,7.27,-6.63,-0.03,0,*71
1529614989.73,16549,23.06,73984.0,7.27,-6.63,0.05,0,*5B
1529614990.94,16550,23.06,73982.8,7.27,-6.69,-0.03,0,*72
1529614992.14,16551,23.06,73986.0,7.27,-6.81,-0.07,0,*71
1529614993.35,16552,23.06,73984.0,7.27,-6.77,-0.03,0,*7F
1529614994.56,16553,23.06,73984.5,7.27,-6.77,-0.03,0,*7E
1529614995.75,16554,23.06,73986.8,7.25,-6.81,-0.07,0,*76
1529614996.96,16555,23.06,73986.3,7.27,-6.81,-0.07,0,*75
1529614998.16,16556,23.06,73988.8,7.27,-6.85,-0.03,0,*76
1529614999.35,16557,23.06,73984.0,7.25,-6.77,-0.03,0,*78
1529615000.53,16558,23.06,73984.0,7.25,-6.77,0.05,0,*5C
1529615001.71,16559,23.06,73986.8,7.25,-6.81,-0.07,0,*7B
1529615002.89,16560,23.06,73984.0,7.25,-6.85,-0.03,0,*71
1529615004.11,16561,23.06,73986.0,7.25,-6.93,-0.15,0,*40
1529615005.29,16562,23.06,73984.8,7.25,-6.85,-0.03,0,*73
1529615006.47,16563,23.06,73986.3,7.25,-6.85,-0.03,0,*72
1529615007.65,16564,23.06,73986.8,7.25,-6.85,-0.03,0,*75
1529615008.83,16565,23.06,73980.5,7.25,-6.85,-0.03,0,*74
1529615010.01,16566,23.06,73984.5,7.25,-6.81,0.05,0,*58
1529615011.19,16567,23.06,73986.5,7.25,-6.69,0.09,0,*53
1529615012.39,16568,23.06,73984.0,7.25,-6.77,0.17,0,*6C
1529615013.57,16569,23.06,73986.5,7.25,-6.85,0.09,0,*5F
1529615014.77,16570,23.06,73982.0,7.21,-6.85,0.13,0,*68
1529615015.97,16571,23.06,73984.3,7.21,-6.85,0.13,0,*69
1529615017.2,16572,23.06,73980.8,7.19,-7.01,-0.03,0,*70
1529615018.43,16573,23.06,73984.0,7.19,-7.05,-0.03,0,*75
1529615019.64,16574,23.06,73990.0,7.21,-7.01,0.05,0,*56
1529615020.84,16575,23.06,73984.0,7.21,-6.85,0.13,0,*6D
1529615022.04,16576,23.06,73984.0,7.21,-6.89,0.13,0,*62
1529615023.23,16577,23.06,73982.8,7.21,-6.89,0.05,0,*54
1529615024.41,16578,23.06,73984.3,7.21,-6.85,0.05,0,*57
1529615025.61,16579,23.06,73986.3,7.21,-6.85,0.13,0,*61
1529615026.81,16580,23.06,73986.3,7.21,-6.89,0.13,0,*6B
1529615028.02,16581,23.06,73984.8,7.21,-6.89,0.13,0,*6A
1529615029.22,16582,23.06,73984.0,7.21,-6.85,0.17,0,*61
1529615030.42,16583,23.06,73982.8,7.21,-6.85,0.17,0,*60
1529615031.63,16584,23.06,73986.8,7.21,-6.85,0.25,0,*66
1529615032.84,16585,23.06,73988.3,7.21,-6.81,0.25,0,*63
1529615034.04,16586,23.06,73986.0,7.21,-6.73,0.29,0,*61
1529615035.25,16587,23.06,73980.5,7.21,-6.81,0.29,0,*6D
1529615036.46,16588,23.06,73984.0,7.21,-6.73,0.29,0,*6F
1529615037.69,16589,23.06,73986.5,7.19,-6.77,0.37,0,*6E
1529615038.88,16590,23.06,73982.3,7.21,-6.69,0.41,0,*63
1529615040.08,16591,23.06,73984.3,7.21,-6.69,0.41,0,*62
1529615041.33,16592,23.06,73984.8,7.19,-6.63,0.37,0,*61
1529615042.51,16593,23.06,73984.3,7.21,-6.55,0.43,0,*6D
1529615043.73,16594,23.06,73982.8,7.21,-6.55,0.55,0,*6D
1529615044.93,16595,23.06,73982.8,7.21,-6.55,0.51,0,*68
1529615046.15,16596,23.06,73984.8,7.21,-6.55,0.55,0,*6F
1529615047.35,16597,23.06,73986.0,7.21,-6.47,0.55,0,*6D
1529615048.56,16598,23.06,73986.0,7.21,-6.35,0.63,0,*62
1529615049.77,16599,23.06,73982.8,7.21,-6.35,0.67,0,*67
1529615050.98,16600,23.06,73988.0,7.21,-6.31,0.63,0,*64
1529615052.23,16601,23.06,73986.3,7.19,-6.27,0.71,0,*6A
1529615053.44,16602,23.06,73982.0,7.21,-6.09,0.87,0,*67
1529615054.66,16603,23.06,73984.0,7.19,-6.05,0.87,0,*61
1529615055.89,16604,23.06,73980.5,7.19,-5.93,0.97,0,*6B
1529615057.09,16605,23.06,73990.3,7.21,-5.81,0.97,0,*62
1529615058.3,16606,23.06,73984.3,7.21,-5.65,1.01,0,*55
1529615059.51,16607,23.06,73984.0,7.21,-5.65,0.97,0,*6A
1529615060.69,16608,23.06,73984.3,7.21,-5.51,1.01,0,*5C
1529615061.93,16609,23.06,73986.3,7.21,-5.27,1.13,0,*5F
1529615063.16,16610,23.06,73986.0,7.25,-5.15,1.17,0,*56
1529615064.4,16611,23.06,73986.3,7.25,-5.07,1.33,0,*52
1529615065.61,16612,23.06,73980.3,7.27,-4.85,1.41,0,*5D
1529615066.81,16613,23.06,73984.3,7.21,-4.85,1.41,0,*5A
1529615068.03,16614,23.06,73982.0,7.21,-4.69,1.43,0,*5D
1529615069.23,16615,23.06,73984.0,7.21,-4.49,1.63,0,*5C
1529615070.44,16616,23.06,73984.8,7.21,-4.33,1.63,0,*52
1529615071.63,16617,23.06,73984.5,7.25,-4.05,1.75,0,*55
1529615072.82,16618,23.06,73986.5,7.21,-3.83,1.83,0,*5E
1529615074.06,16619,23.06,73988.0,7.21,-3.59,1.93,0,*59
1529615075.3,16620,23.06,73984.0,7.21,-3.47,2.01,0,*54
1529615076.51,16621,23.06,73984.8,7.21,-3.35,2.09,0,*58
1529615077.72,16622,23.06,73988.0,7.25,-2.95,2.25,0,*5A
1529615078.9,16623,23.06,73984.0,7.25,-2.83,2.35,0,*5D
1529615080.1,16624,23.06,73986.5,7.25,-2.67,2.35,0,*50
1529615081.31,16625,23.06,73986.3,7.25,-2.43,2.47,0,*52
1529615082.52,16626,23.06,73986.3,7.25,-2.15,2.51,0,*55
1529615083.75,16627,23.06,73986.8,7.25,-1.95,2.59,0,*57
1529615084.95,16628,23.06,73986.8,7.25,-1.67,2.69,0,*56
1529615086.19,16629,23.06,73984.3,7.25,-1.39,2.73,0,*57
1529615087.43,16630,23.06,73984.0,7.27,-1.17,2.81,0,*5C
1529615088.66,16631,23.06,73986.8,7.27,-0.89,2.95,0,*6E
1529615089.84,16632,23.06,73986.5,7.25,-0.69,2.99,0,*6D
1529615091.07,16633,23.06,73986.3,7.27,-0.41,3.11,0,*65
1529615092.27,16634,23.06,73984.5,7.25,-0.29,3.11,0,*6E
1529615093.47,16635,23.0,73982.8,7.25,-0.03,3.11,0,*57
1529615094.68,16636,23.06,73986.3,7.25,0.17,3.23,0,*4D
1529615095.92,16637,23.06,73984.0,7.27,0.41,3.33,0,*4C
1529615097.18,16638,23.06,73984.0,7.27,0.47,3.41,0,*40
1529615098.42,16639,23.06,73986.0,7.27,0.71,3.53,0,*47
1529615099.67,16640,23.06,73986.8,7.27,0.91,3.53,0,*47
1529615100.93,16641,23.06,73986.0,7.27,1.13,3.67,0,*7A
1529615102.18,16642,23.06,73986.8,7.27,1.51,3.79,0,*70
1529615103.43,16643,23.0,73984.0,7.27,1.63,3.79,0,*70
1529615104.64,16644,23.0,73984.5,7.27,1.75,3.93,0,*74
1529615105.85,16645,23.06,73990.0,7.27,1.75,3.93,0,*75
1529615107.05,16646,23.06,73988.0,7.29,1.79,3.97,0,*70
1529615108.28,16647,23.06,73990.3,7.29,1.89,4.05,0,*72
1529615109.5,16648,23.06,73990.5,7.31,2.09,4.15,0,*7E
1529615110.7,16649,23.0,73984.8,7.29,2.21,4.27,0,*7D
1529615111.88,16650,23.0,73986.5,7.29,2.27,4.19,0,*7E
1529615113.11,16651,23.0,73984.0,7.29,2.39,4.31,0,*7A
1529615114.32,16652,23.06,73988.0,7.29,2.55,4.41,0,*74
1529615115.54,16653,23.0,73984.3,7.31,2.77,4.45,0,*78
1529615116.77,16654,23.06,73990.3,7.31,2.85,4.45,0,*72
1529615118.0,16655,23.0,73986.3,7.31,3.15,4.53,0,*7C
1529615119.25,16656,23.06,73986.3,7.31,3.33,4.63,0,*78
1529615120.51,16657,23.0,73986.0,7.31,3.45,4.75,0,*7F
1529615121.68,16658,23.06,73988.0,7.33,3.63,4.81,0,*7D
1529615122.91,16659,23.06,73988.0,7.31,3.75,4.89,0,*71
1529615124.14,16660,23.0,73986.3,7.31,3.81,4.97,0,*7F
1529615125.37,16661,23.0,73986.8,7.33,4.01,5.05,0,*79
1529615126.56,16662,23.0,73986.0,7.33,4.11,5.11,0,*7E
1529615127.77,16663,23.06,73988.5,7.33,4.31,5.15,0,*79
1529615128.98,16664,23.0,73988.8,7.35,4.37,5.29,0,*71
1529615130.18,16665,23.0,73984.8,7.35,4.49,5.29,0,*79
1529615131.38,16666,23.0,73986.8,7.35,4.41,5.41,0,*7C
1529615132.57,16667,23.0,73986.3,7.35,4.49,5.41,0,*75
1529615133.8,16668,23.0,73990.3,7.35,4.49,5.51,0,*7B
1529615134.98,16669,23.0,73984.0,7.33,4.57,5.63,0,*72
1529615136.16,16670,23.06,73988.8,7.33,4.57,5.63,0,*7A
1529615137.39,16671,23.06,73988.5,7.35,4.59,5.67,0,*77
1529615138.62,16672,23.0,73984.5,7.35,4.53,5.77,0,*7F
1529615139.85,16673,23.0,73988.0,7.35,4.53,5.85,0,*73
1529615141.07,16674,23.06,73988.8,7.35,4.53,5.77,0,*79
1529615142.3,16675,23.0,73986.5,7.35,4.53,5.89,0,*79
1529615143.5,16676,23.0,73988.0,7.37,4.53,5.89,0,*78
1529615144.73,16677,23.0,73988.5,7.39,4.63,5.95,0,*79
1529615145.94,16678,23.0,73986.8,7.37,4.59,5.99,0,*7D
1529615147.13,16679,23.0,73984.3,7.37,4.53,5.99,0,*76
1529615148.31,16680,23.0,73984.5,7.37,4.53,5.99,0,*70
1529615149.54,16681,23.0,73984.8,7.39,4.67,6.07,0,*7C
1529615150.76,16682,23.0,73986.0,7.41,4.79,6.17,0,*7E
1529615152.01,16683,23.0,73982.0,7.39,4.79,6.13,0,*74
1529615153.23,16684,23.0,73986.0,7.39,4.85,6.13,0,*70
1529615154.46,16685,23.0,73986.8,7.39,4.97,6.11,0,*70
1529615155.66,16686,23.0,73986.3,7.39,5.07,6.25,0,*7C
1529615156.89,16687,23.0,73984.0,7.39,5.19,6.17,0,*73
1529615158.12,16688,23.0,73988.3,7.39,5.19,6.17,0,*7C
1529615159.28,16689,23.0,73986.0,7.41,5.15,6.29,0,*73
1529615160.45,16690,23.0,73984.0,7.41,5.11,6.29,0,*7F
1529615161.65,16691,23.0,73988.8,7.41,4.93,6.21,0,*7D
1529615162.82,16692,23.0,73990.8,7.41,4.81,6.21,0,*7D
1529615164.02,16693,23.0,73988.5,7.41,4.71,6.29,0,*7B
1529615165.22,16694,23.0,73986.3,7.41,4.67,6.21,0,*73
1529615166.39,16695,23.0,73986.3,7.41,4.49,6.21,0,*7E
1529615167.58,16696,23.0,73986.8,7.43,4.49,6.11,0,*7C
1529615168.78,16697,23.0,73984.5,7.43,4.41,6.11,0,*75
1529615169.98,16698,23.0,73986.5,7.47,4.45,6.21,0,*79
1529615171.18,16699,23.0,73986.0,7.41,4.31,6.11,0,*7E
1529615172.38,16700,23.0,73986.0,7.43,4.07,6.11,0,*78
1529615173.56,16701,23.06,73988.0,7.41,4.07,6.11,0,*7B
1529615174.78,16702,23.0,73986.0,7.47,4.15,6.13,0,*7F
1529615176.0,16703,23.0,73986.3,7.47,4.49,6.13,0,*77
1529615177.22,16704,23.0,73986.5,7.43,4.67,6.11,0,*7A
1529615178.44,16705,23.0,73982.5,7.43,4.67,6.11,0,*7B
1529615179.69,16706,23.0,73988.0,7.47,4.75,6.13,0,*7D
1529615180.91,16707,23.0,73988.0,7.47,4.75,6.11,0,*7E
1529615182.15,16708,23.0,73984.5,7.43,4.71,5.99,0,*72
1529615183.35,16709,23.0,73984.3,7.47,4.81,5.99,0,*78
1529615184.55,16710,23.0,73986.5,7.49,4.81,5.95,0,*72
1529615185.76,16711,23.0,73984.0,7.49,4.81,5.99,0,*7F
1529615186.96,16712,23.0,73986.0,7.47,4.85,5.99,0,*76
1529615188.19,16713,23.0,73986.5,7.49,5.05,5.99,0,*70
1529615189.39,16714,23.0,73990.0,7.43,5.11,5.95,0,*74
1529615190.58,16715,23.0,73986.0,7.43,5.15,6.07,0,*79
1529615191.78,16716,23.0,73984.3,7.49,5.29,6.11,0,*78
1529615193.02,16717,23.0,73984.3,7.47,5.27,6.13,0,*7B
1529615194.26,16718,23.0,73984.5,7.49,5.27,6.13,0,*7A
1529615195.5,16719,23.0,73986.5,7.49,5.27,6.13,0,*7B
1529615196.7,16720,23.0,73986.5,7.47,5.33,6.33,0,*78
1529615197.9,16721,23.0,73986.3,7.47,5.33,6.25,0,*7E
1529615199.09,16722,23.0,73986.8,7.47,5.45,6.25,0,*7C
1529615200.32,16723,23.0,73984.8,7.49,5.51,6.21,0,*72
1529615201.53,16724,23.0,73984.5,7.49,5.67,6.33,0,*73
1529615202.73,16725,23.0,73984.8,7.51,5.71,6.35,0,*7A
1529615203.93,16726,23.0,73984.8,7.49,5.63,6.33,0,*75
1529615205.13,16727,23.0,73986.8,7.51,5.55,6.29,0,*73
1529615206.35,16728,23.0,73984.3,7.51,5.55,6.13,0,*75
1529615207.54,16729,23.0,73982.0,7.51,5.59,6.13,0,*78
1529615208.76,16730,23.0,73982.0,7.51,5.55,5.93,0,*77
1529615209.95,16731,23.0,73986.3,7.51,5.45,5.77,0,*7D
1529615211.16,16732,23.0,73984.0,7.51,5.23,5.55,0,*7E
1529615212.33,16733,23.0,73986.8,7.51,5.07,5.49,0,*74
1529615213.54,16734,23.0,73984.0,7.51,4.79,5.11,0,*76
1529615214.72,16735,23.0,73986.0,7.51,4.41,4.85,0,*70
1529615215.92,16736,23.0,73986.3,7.51,4.19,4.67,0,*72
1529615217.11,16737,23.0,73986.0,7.51,4.11,4.53,0,*7C
1529615218.31,16738,23.0,73986.8,7.51,3.85,4.31,0,*7D
1529615219.54,16739,23.0,73982.5,7.53,3.71,4.11,0,*77
1529615220.74,16740,23.0,73986.0,7.51,3.49,3.85,0,*7A
1529615221.95,16741,23.0,73986.3,7.53,3.59,3.89,0,*74
1529615223.16,16742,23.0,73984.8,7.53,3.63,3.89,0,*7E
1529615224.39,16743,23.0,73988.0,7.53,3.71,3.85,0,*70
1529615225.62,16744,23.0,73986.3,7.53,3.97,4.07,0,*72
1529615226.86,16745,23.0,73984.5,7.53,4.11,4.31,0,*7F
1529615228.1,16746,23.0,73984.5,7.53,4.31,4.53,0,*7A
1529615229.28,16747,23.0,73984.8,7.55,4.45,4.57,0,*7A
1529615230.46,16748,23.0,73986.3,7.55,4.45,4.57,0,*75
1529615231.67,16749,23.0,73982.0,7.55,4.57,4.67,0,*74
1529615232.85,16750,23.0,73986.8,7.55,4.57,4.57,0,*7F
1529615234.04,16751,23.0,73986.0,7.55,4.53,4.45,0,*79
1529615235.23,16752,23.0,73986.0,7.55,4.53,4.33,0,*7B
1529615236.43,16753,23.0,73986.5,7.55,4.57,4.31,0,*7C
1529615237.64,16754,23.0,73986.3,7.55,4.67,4.41,0,*7F
1529615238.85,16755,23.0,73984.5,7.55,4.79,4.45,0,*75
1529615240.03,16756,23.0,73986.0,7.55,4.89,4.53,0,*7E
1529615241.24,16757,23.0,73984.5,7.55,4.89,4.67,0,*78
1529615242.5,16758,23.0,73986.3,7.57,4.97,4.75,0,*79
1529615243.69,16759,23.0,73986.0,7.55,4.89,4.57,0,*75
1529615244.87,16760,23.0,73984.0,7.55,4.81,4.45,0,*74
1529615246.1,16761,23.0,73984.8,7.57,4.93,4.41,0,*70
1529615247.31,16762,23.0,73986.5,7.55,4.89,4.31,0,*7D
1529615248.54,16763,23.0,73988.5,7.57,4.97,4.23,0,*72
1529615249.74,16764,23.0,73984.8,7.55,5.01,4.11,0,*78
1529615250.97,16765,23.0,73984.5,7.57,5.05,4.23,0,*7E
1529615252.17,16766,23.0,73984.8,7.57,5.15,4.33,0,*7D
1529615253.35,16767,23.0,73984.5,7.55,5.11,4.23,0,*7B
1529615254.54,16768,23.0,73984.3,7.57,5.15,4.15,0,*77
1529615255.74,16769,23.0,73982.5,7.57,5.15,4.15,0,*76
1529615256.96,16770,23.0,73982.3,7.57,5.07,4.05,0,*7C
1529615258.21,16771,23.0,73986.5,7.57,4.97,4.01,0,*71
1529615259.47,16772,23.0,73982.5,7.61,4.97,4.05,0,*73
1529615260.68,16773,23.0,73984.0,7.59,4.79,3.89,0,*7A
1529615261.88,16774,23.0,73984.3,7.57,4.81,3.89,0,*74
1529615263.13,16775,23.0,73986.0,7.57,4.75,3.79,0,*71
1529615264.32,16776,23.0,73986.8,7.57,4.81,3.85,0,*7A
1529615265.55,16777,23.0,73986.0,7.57,4.75,3.89,0,*7C
1529615266.81,16778,23.0,73980.8,7.57,4.75,3.75,0,*70
1529615268.05,16779,23.0,73984.8,7.57,4.75,3.79,0,*7D
1529615269.31,16780,23.0,73986.8,7.57,4.75,3.75,0,*77
1529615270.53,16781,23.0,73984.3,7.59,4.67,3.71,0,*7F
1529615271.76,16782,23.0,73982.0,7.59,4.67,3.67,0,*7B
1529615272.98,16783,23.0,73980.3,7.57,4.81,3.67,0,*7C
1529615274.21,16784,23.0,73984.8,7.57,4.81,3.75,0,*78
1529615275.41,16785,23.0,73984.5,7.59,4.79,3.89,0,*73
1529615276.64,16786,23.0,73982.5,7.59,4.97,4.05,0,*73
1529615277.82,16787,23.0,73982.5,7.59,5.19,4.19,0,*78
1529615279.02,16788,23.0,73984.5,7.61,5.23,4.27,0,*78
1529615280.19,16789,23.0,73988.3,7.59,5.49,4.53,0,*7D
1529615281.4,16790,23.0,73984.3,7.59,5.59,4.75,0,*70
1529615282.6,16791,23.0,73984.3,7.59,5.67,4.79,0,*70
1529615283.8,16792,23.0,73984.0,7.59,5.77,4.85,0,*71
1529615285.0,16793,23.0,73980.8,7.59,5.77,4.85,0,*70
1529615286.19,16794,23.0,73986.0,7.59,6.03,5.07,0,*7C
1529615287.41,16795,23.0,73982.0,7.61,6.03,5.23,0,*70
1529615288.6,16796,23.0,73984.3,7.59,6.25,5.29,0,*76
1529615289.78,16797,23.0,73980.5,7.59,6.25,5.41,0,*79
1529615291.02,16798,23.0,73986.0,7.59,6.35,5.55,0,*72
1529615292.25,16799,23.0,73980.5,7.59,6.57,5.81,0,*7E
1529615293.51,16800,23.0,73980.3,7.61,6.73,5.93,0,*7F
1529615294.69,16801,23.0,73982.3,7.59,6.79,6.03,0,*75
1529615295.92,16802,23.0,73984.8,7.61,6.91,6.25,0,*7F
1529615297.12,16803,23.0,73986.3,7.61,6.93,6.29,0,*70
1529615298.35,16804,23.0,73980.8,7.61,6.97,6.39,0,*72
1529615299.58,16805,23.0,73982.3,7.63,7.11,6.51,0,*70
1529615300.8,16806,23.0,73982.0,7.63,7.19,6.53,0,*79
1529615302.02,16807,23.0,73980.8,7.63,7.19,6.65,0,*7D
1529615303.22,16808,23.0,73982.5,7.63,7.23,6.83,0,*73
1529615304.39,16809,23.0,73980.8,7.63,7.33,6.93,0,*72
1529615305.56,16810,23.0,73984.0,7.63,7.33,6.93,0,*7A
1529615306.73,16811,23.0,73982.8,7.63,7.41,6.93,0,*7E
1529615307.9,16812,22.94,73980.8,7.63,7.41,6.97,0,*79
1529615309.07,16813,23.0,73982.0,7.63,7.45,7.01,0,*72
1529615310.26,16814,23.0,73980.0,7.65,7.41,7.09,0,*7F
1529615311.49,16815,23.0,73982.0,7.65,7.41,7.11,0,*77
1529615312.71,16816,23.0,73984.0,7.65,7.45,7.11,0,*70
1529615313.93,16817,22.94,73982.5,7.65,7.45,7.23,0,*70
1529615315.15,16818,23.0,73980.0,7.65,7.45,7.23,0,*7F
1529615316.35,16819,23.0,73984.0,7.63,7.45,7.23,0,*78
1529615317.57,16820,23.0,73980.0,7.65,7.51,7.23,0,*71
1529615318.77,16821,22.94,73980.0,7.65,7.51,7.33,0,*71
1529615319.97,16822,23.0,73980.8,7.65,7.51,7.29,0,*79
1529615321.17,16823,23.0,73980.3,7.65,7.45,7.33,0,*76
1529615322.36,16824,23.0,73986.8,7.65,7.51,7.33,0,*74
1529615323.54,16825,23.0,73980.5,7.67,7.45,7.37,0,*76
1529615324.71,16826,23.0,73980.8,7.67,7.55,7.45,0,*71